Theta_e
310 310 311 311 312 312 312 313 313 313 314 314 314 314 314 315 311 301 298 307 311 318 312 301 299 297 296 293 293 289 281 277 280 282 284 288 286 289 290 287 290 292 294 296 301
309 310 310 311 311 311 312 312 312 313 313 314 314 314 314 314 301 297 308 316 317 316 302 297 294 295 291 291 291 285 279 280 285 285 285 287 286 288 286 287 288 290 295 297 301
309 309 310 310 310 311 312 312 312 312 313 313 313 313 315 310 294 295 313 315 316 309 302 299 296 293 288 289 289 287 282 286 287 289 290 288 287 288 285 285 287 287 291 295 300
308 309 309 310 310 311 311 311 312 312 313 313 312 313 314 302 284 298 313 315 314 305 301 298 294 289 286 285 289 284 288 289 290 291 290 288 289 287 286 288 290 292 297 298 304
308 308 309 309 310 311 311 311 312 312 312 311 312 314 304 292 292 302 311 310 305 303 298 295 292 288 284 285 287 284 287 290 291 291 290 291 288 287 287 290 295 299 300 298 307
307 308 309 309 310 310 310 311 312 312 311 311 312 313 297 288 300 303 304 305 304 301 298 296 293 292 288 287 285 288 288 288 290 291 290 288 287 287 289 296 297 298 299 302 305
307 308 309 309 310 310 310 311 311 311 310 312 312 306 294 291 300 302 303 303 305 301 297 298 296 292 289 287 291 288 284 286 288 290 288 291 284 286 295 298 295 295 303 303 309
308 308 309 309 309 309 310 311 311 309 311 311 312 300 291 301 299 300 301 302 304 303 301 300 299 294 291 292 289 283 282 278 286 289 291 287 281 292 296 297 296 300 302 301 304
308 308 308 309 309 309 310 311 309 307 311 310 298 293 288 304 296 298 299 299 301 302 301 304 298 291 291 282 277 277 274 272 282 288 289 288 285 292 296 297 297 299 299 301 303
308 308 308 308 308 309 309 308 304 301 300 305 299 289 292 290 295 297 300 300 298 298 296 295 289 285 283 278 272 273 271 278 278 285 287 286 287 291 294 295 294 297 299 301 302
308 307 308 307 308 308 300 290 288 287 290 286 286 288 290 294 297 298 298 297 298 293 286 290 285 278 279 281 279 274 271 272 281 288 286 285 287 290 293 293 293 294 295 297 299
309 307 307 307 307 305 295 289 288 289 284 288 288 290 292 293 291 294 298 292 291 285 286 283 279 286 287 286 283 276 274 273 281 287 287 284 285 290 291 292 292 292 292 295 296
308 307 306 306 305 297 293 292 297 294 283 285 287 289 289 293 289 291 294 292 288 285 284 281 284 290 289 285 285 284 281 278 279 283 284 282 281 286 291 292 293 293 293 293 294
308 306 306 306 296 293 290 296 297 293 277 282 285 288 291 291 287 294 294 292 287 284 284 284 286 289 285 285 285 283 287 286 284 281 273 280 271 282 287 288 290 291 291 291 293
307 305 305 302 292 289 293 296 294 289 273 282 284 292 291 288 287 289 294 290 284 284 283 281 283 283 284 285 286 284 288 286 284 281 277 278 276 283 287 285 288 289 290 291 292
307 305 303 295 293 293 296 293 289 279 272 279 284 284 285 286 287 289 289 291 290 285 284 283 287 285 284 286 286 287 286 285 282 278 270 276 275 276 280 286 288 289 289 290 290
306 303 298 297 289 294 292 286 277 274 279 275 279 283 283 282 283 285 284 281 277 274 272 281 283 285 286 282 285 284 281 275 272 270 271 277 276 277 283 288 288 287 288 289 289
304 300 297 295 293 292 287 280 271 269 270 280 281 282 280 282 282 283 283 277 282 279 272 273 272 282 286 284 282 282 280 274 269 270 271 278 274 278 284 289 288 288 287 287 285
302 292 291 292 293 288 282 271 273 272 279 279 280 275 274 281 280 281 277 277 280 281 274 272 274 284 285 285 284 281 278 281 276 268 270 273 277 281 283 283 285 285 285 283 283
292 291 289 292 291 284 277 276 272 279 280 280 274 275 268 272 276 277 277 280 281 283 282 280 275 281 285 285 284 283 285 277 276 267 266 272 275 276 281 282 282 281 281 281 282
290 283 289 291 287 280 273 270 271 280 282 280 277 271 276 274 272 275 277 280 281 282 283 282 279 277 282 279 279 280 280 280 278 276 272 270 273 279 281 284 282 281 281 281 281
290 284 289 288 277 264 270 271 282 279 282 280 280 279 278 278 276 275 277 279 281 282 281 283 281 274 277 281 284 282 280 280 274 273 274 275 274 282 283 284 283 281 281 280 281
286 286 293 288 273 269 269 271 278 278 280 280 279 281 281 279 274 278 278 283 281 282 281 283 274 267 271 276 280 281 282 283 280 278 275 272 274 283 282 282 282 281 280 281 279
287 282 286 287 281 278 273 276 272 281 281 282 281 282 279 276 274 274 280 282 283 284 289 286 279 274 271 274 277 279 281 282 280 272 275 275 275 279 281 281 280 280 280 280 280
286 286 286 279 281 279 277 276 273 273 280 282 279 281 279 273 274 274 275 280 281 284 282 279 269 273 278 279 279 279 280 280 279 279 276 275 276 280 283 282 281 281 280 280 280
286 285 286 284 283 280 278 274 277 278 279 277 278 280 280 276 278 274 279 278 278 279 280 280 268 269 267 273 274 275 278 278 279 280 279 279 280 283 282 282 279 280 280 279 280
291 291 292 284 283 282 278 280 280 281 281 282 281 280 279 280 280 279 280 280 280 278 274 272 267 263 265 265 267 268 270 276 277 278 280 277 282 282 281 282 282 281 281 281 281
Wind_Speed
5 6 7 8 9 11 12 12 13 14 14 14 15 14 12 12 7 7 9 6 10 17 10 8 8 8 6 6 6 2 5 2 3 4 7 5 6 4 4 4 5 5 3 7 12
4 5 7 8 9 10 12 12 13 13 13 13 13 12 11 9 3 9 6 14 15 16 7 10 8 7 6 6 6 6 4 1 2 2 5 4 4 8 5 6 5 8 6 9 14
3 5 7 8 10 11 12 13 13 13 14 14 13 12 11 5 3 4 11 14 13 11 3 3 3 5 8 4 7 5 3 4 3 4 4 5 5 3 5 6 5 8 15 13 16
3 5 7 9 10 11 12 13 14 13 13 13 12 11 9 2 3 3 11 11 12 9 6 9 8 7 6 5 4 5 4 5 7 5 5 5 6 6 6 14 6 11 15 12 12
2 5 7 9 10 12 13 14 15 14 14 11 10 11 4 6 3 4 9 9 5 5 11 6 9 4 5 3 3 4 5 7 9 9 5 6 7 5 10 12 15 14 14 10 7
2 5 8 10 11 11 13 14 14 14 11 9 9 8 2 6 3 5 6 4 6 5 8 8 5 3 6 4 3 3 4 6 7 12 2 8 7 5 9 18 18 13 11 4 7
2 5 8 10 11 12 13 13 14 12 9 8 7 3 7 3 2 4 6 3 3 3 3 3 4 5 2 1 1 0 4 6 6 14 5 11 5 9 20 20 8 7 4 6 15
2 4 8 10 12 13 14 13 12 6 7 5 6 2 4 2 1 4 5 3 5 3 3 2 3 6 4 1 4 5 6 6 7 11 7 6 6 16 22 21 9 13 11 13 21
1 4 7 10 12 13 14 13 7 4 3 4 4 2 2 3 4 4 3 3 2 3 3 1 3 4 4 4 5 8 2 3 8 4 7 11 7 14 15 15 14 14 10 16 17
2 3 6 10 11 14 14 5 4 3 3 1 1 4 5 4 4 3 3 3 4 2 3 7 6 5 5 7 1 3 3 4 5 7 7 13 11 13 15 15 15 14 13 18 17
3 2 6 9 11 12 5 4 5 4 9 4 1 1 3 7 2 3 3 2 2 5 4 5 8 1 2 2 4 4 3 2 4 5 9 9 10 12 14 15 15 13 18 22 19
3 2 5 8 10 8 3 6 1 2 5 3 1 2 1 1 4 6 4 3 4 3 2 7 2 2 5 3 2 3 1 4 7 4 5 6 7 8 13 13 14 14 19 15 13
3 2 5 8 4 5 5 3 3 2 4 3 2 2 3 3 2 6 4 2 4 3 5 5 2 6 2 2 4 3 4 3 6 4 1 5 5 12 11 12 15 17 10 13 14
4 2 6 9 4 1 4 3 3 2 7 5 3 3 2 0 3 2 1 2 3 1 2 2 1 3 1 4 1 4 4 2 3 5 3 3 3 5 8 12 17 15 13 14 15
6 3 6 7 5 3 1 2 2 4 4 2 5 2 4 4 2 3 2 2 3 1 3 2 2 2 3 5 3 7 4 4 0 2 2 8 4 7 2 9 11 13 15 15 14
7 5 4 4 4 0 1 3 3 9 4 2 2 4 3 5 5 6 3 6 2 2 2 2 2 2 2 2 3 5 5 4 3 2 4 5 1 5 4 5 4 11 12 12 13
7 7 5 2 2 2 1 4 8 6 5 5 2 3 2 5 4 6 5 6 2 6 6 5 1 1 0 1 2 2 4 5 8 8 4 3 4 4 0 2 2 3 7 8 11
11 5 6 3 1 1 3 8 7 3 5 3 3 2 3 6 4 6 2 3 4 4 4 3 7 3 4 2 1 3 2 5 2 3 7 4 2 4 2 2 1 3 4 7 7
12 2 3 4 3 2 7 6 8 7 4 5 2 5 5 3 2 5 2 2 1 3 5 3 5 3 3 2 1 1 3 1 5 1 3 4 4 4 3 2 1 2 6 6 5
3 4 2 6 4 5 7 4 3 3 2 2 4 2 2 3 3 3 2 3 2 1 1 4 3 1 2 1 2 1 2 2 3 3 5 5 5 5 8 8 5 4 6 4 5
4 4 3 5 3 6 5 6 4 4 1 3 4 3 2 2 2 2 2 1 1 2 0 4 2 5 2 2 2 2 0 3 2 2 3 4 7 4 6 9 10 7 3 6 5
4 3 3 3 6 2 3 6 2 3 0 2 3 4 4 4 2 2 2 2 2 1 3 1 3 3 3 3 1 1 2 2 5 4 2 2 9 2 5 7 8 8 7 4 5
4 3 0 4 4 3 3 2 2 2 4 4 3 3 1 4 1 3 2 1 2 2 1 2 3 4 9 6 2 3 3 2 3 2 5 5 7 3 4 7 5 9 7 6 4
4 4 2 2 2 5 5 2 2 2 1 3 4 4 3 2 3 3 3 1 1 1 2 2 1 5 7 3 2 3 5 5 4 3 3 7 4 3 5 8 7 7 6 7 6
2 2 2 5 5 5 1 5 4 4 2 3 1 5 7 4 1 4 2 2 0 1 3 4 3 2 5 6 4 6 7 7 9 6 7 4 6 6 11 13 11 8 6 7 6
8 6 1 2 4 8 3 7 11 4 9 5 5 8 7 7 7 9 7 4 5 2 4 2 3 3 6 6 3 8 12 12 13 9 11 9 20 10 3 7 8 10 10 9 8
1 1 6 6 5 5 8 9 11 8 6 3 8 7 7 9 5 3 3 4 5 7 5 4 5 4 7 4 7 9 11 16 6 7 12 12 12 7 5 11 16 15 14 14 10
Wind_Direction
27 20 13 12 4 360 359 357 357 356 355 352 351 350 356 354 358 27 39 339 342 340 351 322 20 5 30 53 37 53 63 70 2 359 292 326 350 292 289 261 317 247 270 296 312
20 9 4 4 359 356 352 352 352 352 349 348 346 344 350 350 41 49 350 357 358 358 10 20 7 6 52 29 20 55 66 182 188 235 261 273 280 296 321 293 269 283 274 317 326
19 358 357 354 352 349 348 346 348 347 344 342 340 339 340 345 68 345 350 357 1 6 32 18 46 55 59 31 1 344 53 330 278 273 255 272 275 251 288 283 242 279 308 318 316
9 354 348 347 345 345 344 343 342 341 338 337 336 336 336 342 90 306 353 6 13 19 32 27 28 53 66 52 345 66 8 6 296 297 300 292 291 297 241 262 301 307 298 294 296
342 344 343 340 343 342 341 343 339 338 337 340 337 340 344 50 41 337 358 4 17 6 38 44 44 65 81 67 25 38 355 327 295 296 289 274 260 252 273 291 288 298 286 274 294
328 337 339 339 339 342 341 341 336 337 340 342 343 339 16 71 305 358 359 25 28 29 24 40 77 67 87 69 76 313 310 289 302 350 303 342 314 31 302 300 294 293 278 251 320
315 341 336 336 337 339 338 335 330 334 338 342 344 9 58 139 32 2 24 35 22 29 50 45 106 78 155 89 109 252 21 344 319 350 311 329 33 349 328 328 317 301 106 31 7
297 333 332 335 335 336 332 332 324 331 334 353 354 2 79 359 174 24 355 45 21 28 85 120 95 103 70 304 23 39 54 16 314 350 302 344 347 351 342 355 9 42 48 25 14
248 328 331 334 336 334 329 326 323 328 335 1 35 42 61 327 35 323 7 41 29 33 16 108 70 83 34 57 28 14 42 355 308 27 332 25 347 345 357 359 3 26 10 22 10
221 327 335 338 338 334 327 330 336 3 343 31 58 50 14 322 315 342 345 22 63 34 359 31 43 59 24 40 9 289 1 327 282 326 352 10 12 360 359 11 13 18 24 23 7
207 338 342 342 340 349 7 27 25 358 38 74 313 103 344 305 273 26 10 2 24 50 29 357 58 49 327 76 143 135 125 239 266 269 351 350 356 1 9 15 18 22 25 21 351
200 353 346 341 344 7 62 76 43 168 82 29 354 22 101 335 6 353 10 61 34 52 41 17 38 156 129 139 114 95 59 288 280 296 321 345 17 18 27 23 22 31 31 5 348
172 9 341 339 358 46 76 77 341 303 87 3 42 359 317 23 64 326 32 4 46 42 38 111 273 143 62 320 330 267 251 215 225 322 7 300 344 14 12 38 35 39 20 13 5
146 32 352 333 71 224 57 341 360 319 78 322 352 349 329 187 59 331 48 89 41 83 75 116 184 171 162 300 95 304 264 234 251 23 314 41 285 17 1 18 25 19 17 7 6
137 83 44 47 146 64 177 349 8 58 49 299 316 277 308 70 268 349 355 31 119 246 94 239 150 154 220 241 146 255 310 283 287 333 50 336 63 313 11 18 15 9 11 8 9
140 111 122 41 52 70 264 79 60 47 268 357 301 343 4 25 5 323 22 38 123 114 9 253 300 157 230 298 215 296 310 297 4 59 48 297 35 314 3 343 15 6 10 2 9
124 94 78 90 129 309 11 56 44 112 358 297 8 24 49 350 5 31 24 15 94 57 356 340 157 328 17 12 345 26 21 345 354 7 234 334 19 270 261 67 42 1 16 16 20
125 77 42 66 9 72 51 51 81 217 225 302 5 37 68 358 24 7 42 32 26 60 89 85 337 10 350 84 254 34 73 138 235 327 296 352 63 256 212 168 178 49 66 57 32
121 54 33 341 16 68 73 58 193 194 170 146 69 63 327 2 352 27 49 175 345 38 122 74 299 319 35 12 78 336 58 196 109 61 23 303 291 94 138 199 195 75 55 37 24
97 90 26 321 351 68 75 212 152 188 156 170 129 140 174 277 23 35 342 262 132 102 168 198 353 301 298 112 0 59 167 53 3 37 314 297 279 235 194 203 200 171 134 120 91
79 72 276 352 27 47 143 210 207 223 211 133 170 121 208 198 174 227 242 257 275 180 16 152 102 283 46 19 171 5 353 72 115 141 177 315 274 211 220 177 177 181 165 127 104
122 85 296 39 56 336 149 179 210 159 145 107 108 118 164 158 145 269 244 271 336 189 160 250 131 258 207 153 235 178 247 149 125 244 226 159 274 360 274 179 158 165 170 181 144
101 121 54 88 132 276 314 341 206 127 172 147 146 135 153 151 58 184 244 336 351 320 158 204 326 355 345 358 350 200 191 205 113 71 214 143 262 39 88 139 163 163 184 173 151
110 115 39 59 118 144 152 176 184 320 139 136 123 103 102 113 352 201 207 155 96 94 54 353 213 189 201 216 138 246 191 195 167 139 208 230 269 244 198 184 182 190 184 180 183
80 204 189 179 235 158 151 130 143 166 275 207 48 198 171 140 81 237 291 163 119 179 72 104 219 339 283 266 249 250 227 196 203 209 193 266 223 241 214 201 195 181 165 177 190
136 145 37 95 119 124 201 220 172 197 149 234 207 182 175 172 188 195 151 199 196 104 148 67 261 67 295 328 299 268 241 232 231 231 257 261 270 212 230 136 170 186 176 189 195
190 30 123 145 148 141 205 192 203 143 216 188 167 121 188 223 164 90 101 98 150 156 153 133 131 77 272 339 323 294 227 203 186 203 202 211 226 160 187 194 196 192 187 191 189